Flag for Italy Weather past 2 weeks in Palermo, Italy

Now
82 °F

Passing clouds.


Feels Like: 88 °F
Forecast: 69 / 86 °F
Wind: 8 mph from North

Location: Palermo / Punta Raisi

Current Time: Sep 1, 2015 at 3:01:45 PM

Latest Report: Sep 1, 2015 at 1:50 PM


Visibility: N/A

Pressure: 30.01 "Hg

Humidity: 74%

Dew point: 73 °F

Location of PalermoLocation

Historic Weather in Palermo — Graph

°F

Palermo temperature yesterday

Maximum temperature yesterday: 86 °F (at 1:50 PM)
Minimum temperature yesterday: 73 °F (at 5:50 AM)
Average temperature yesterday: 79 °F

Past Weeks' High & Low Weather Summary

 TemperatureHumidityPressure
High90 °F (Aug 24, 2:20 PM)89% (Aug 26, 2:20 AM)30.18 "Hg (Aug 26, 2:20 AM)
Low70 °F (Aug 18, 6:20 AM)29% (Aug 25, 1:20 AM)29.89 "Hg (Aug 18, 6:20 PM)
Average80 °F67%30.03 "Hg
* Reported Aug 17 1:20 PM — Sep 1 1:20 PM, Palermo, Weather by CustomWeather, © 2015

Note: Actual official high and low records may vary slightly from our data, if they occured in-between our weather recording intervals... More about our weather records

Advertising

Palermo weather history for previous 24 hours

 ConditionsComfort  
Time TempWeatherWind HumidityBarometerVisibility
1:20 PM
Tue, Sep 1
82 °FPassing clouds.9 mph70%30.01 "HgN/A
12:20 PM82 °FPassing clouds.9 mph74%30.01 "HgN/A
11:50 AM82 °FPassing clouds.8 mph70%30.01 "HgN/A
11:20 AM82 °FPassing clouds.5 mph70%30.01 "HgN/A
10:50 AM81 °FPassing clouds.5 mph70%30.01 "HgN/A
10:20 AM81 °FPassing clouds.5 mph70%30.01 "HgN/A
9:50 AM81 °FPassing clouds.6 mph70%30.01 "HgN/A
9:20 AM79 °FSunny.5 mph70%29.98 "Hg10 mi
8:50 AM81 °FPassing clouds.5 mph66%29.98 "HgN/A
8:20 AM79 °FSunny.7 mph65%29.98 "Hg10 mi
7:50 AM75 °FSunny.7 mph69%29.98 "Hg10 mi
7:20 AM77 °FClear.8 mph69%29.98 "Hg10 mi
6:50 AM75 °FClear.8 mph74%29.98 "Hg10 mi
5:20 AM77 °FClear.2 mph79%29.98 "Hg10 mi
4:50 AM77 °FClear.5 mph79%29.98 "Hg10 mi
3:50 AM77 °FClear.5 mph79%29.98 "Hg10 mi
3:20 AM77 °FClear.2 mph79%29.98 "Hg10 mi
2:50 AM77 °FClear.3 mph69%29.98 "Hg10 mi
2:20 AM75 °FClear.3 mph78%29.98 "Hg10 mi
1:50 AM75 °FClear.3 mph83%29.98 "Hg10 mi
Weather by CustomWeather, © 2015

See weather overviewHow to use our weather pages